• In Latvia
  • List of Countries
  • For 7 days
  • Water Temperature
  • Satellite Maps
  • Weather Map
  • Weather Widgets
  • user-avatar
    Login

    Hourly Weather Lezhe

    Today, 25 May, Thursday

    Time Temperature Precipitation Wind Pressure Humidity
    00:00 +14°C° 0.2 mm 1 mps 736 mmHg 94%
    01:00 +13°C° 0.2 mm 1 mps 736 mmHg 94%
    02:00 +13°C° 0.2 mm 1 mps 736 mmHg 94%
    03:00 +14°C° 0.2 mm 1 mps 735 mmHg 94%
    04:00 +14°C° 0.2 mm 1 mps 735 mmHg 93%
    05:00 +15°C° 0.4 mm 1 mps 735 mmHg 89%
    06:00 +16°C° 0.4 mm 2 mps 735 mmHg 86%
    07:00 +18°C° 0.4 mm 2 mps 736 mmHg 82%
    08:00 +18°C° 0.8 mm 2 mps 736 mmHg 79%
    09:00 +19°C° 0.8 mm 2 mps 736 mmHg 76%
    10:00 +20°C° 0.8 mm 2 mps 736 mmHg 73%
    11:00 +19°C° 1.8 mm 2 mps 736 mmHg 77%
    12:00 +18°C° 1.8 mm 2 mps 735 mmHg 81%
    13:00 +17°C° 1.8 mm 3 mps 735 mmHg 85%
    14:00 +17°C° 2.4 mm 3 mps 735 mmHg 87%
    15:00 +16°C° 2.4 mm 3 mps 735 mmHg 90%
    16:00 +14°C° 2.4 mm 3 mps 735 mmHg 92%
    17:00 +14°C° 1 mm 3 mps 735 mmHg 92%
    18:00 +13°C° 1 mm 3 mps 735 mmHg 92%
    19:00 +13°C° 1 mm 3 mps 735 mmHg 92%
    20:00 +12°C° 0.2 mm 3 mps 735 mmHg 92%
    21:00 +12°C° 0.2 mm 3 mps 735 mmHg 92%
    22:00 +12°C° 0.2 mm 3 mps 736 mmHg 92%
    23:00 +11°C° 0.1 mm 3 mps 735 mmHg 92%

    Tomorrow, 26 May, Friday

    Time Temperature Precipitation Wind Pressure Humidity
    00:00 +12°C° 0.1 mm 2 mps 735 mmHg 92%
    01:00 +12°C° 0.1 mm 2 mps 735 mmHg 91%
    02:00 +12°C° 0.1 mm 2 mps 735 mmHg 91%
    03:00 +10°C° 0.1 mm 2 mps 735 mmHg 92%
    04:00 +10°C° 0.1 mm 2 mps 734 mmHg 92%
    05:00 +12°C° 0.2 mm 2 mps 735 mmHg 89%
    06:00 +13°C° 0.2 mm 2 mps 735 mmHg 87%
    07:00 +14°C° 0.2 mm 2 mps 735 mmHg 85%
    08:00 +16°C° 0.1 mm 2 mps 735 mmHg 78%
    09:00 +17°C° 0.1 mm 2 mps 735 mmHg 71%
    10:00 +19°C° 0.1 mm 2 mps 735 mmHg 64%
    11:00 +20°C° 0.1 mm 3 mps 735 mmHg 61%
    12:00 +20°C° 0.1 mm 3 mps 735 mmHg 58%
    13:00 +21°C° 0.1 mm 4 mps 735 mmHg 55%
    14:00 +21°C° 0.1 mm 4 mps 735 mmHg 57%
    15:00 +21°C° 0.1 mm 4 mps 735 mmHg 58%
    16:00 +20°C° 0.1 mm 4 mps 735 mmHg 60%
    17:00 +19°C° 0 mm 4 mps 735 mmHg 67%
    18:00 +17°C° 0 mm 4 mps 735 mmHg 74%
    19:00 +14°C° 0 mm 3 mps 735 mmHg 81%
    20:00 +14°C° 0.1 mm 3 mps 736 mmHg 82%
    21:00 +14°C° 0.1 mm 3 mps 736 mmHg 82%
    22:00 +14°C° 0.1 mm 3 mps 736 mmHg 83%
    23:00 +14°C° 0.1 mm 3 mps 736 mmHg 83%

    Day after tomorrow, 27 May, Saturday

    Time Temperature Precipitation Wind Pressure Humidity
    00:00 +14°C° 0.1 mm 3 mps 736 mmHg 84%
    01:00 +14°C° 0.1 mm 3 mps 736 mmHg 84%
    02:00 +14°C° 0 mm 3 mps 736 mmHg 84%
    03:00 +13°C° 0 mm 3 mps 736 mmHg 85%
    04:00 +13°C° 0 mm 3 mps 736 mmHg 86%
    05:00 +16°C° 0 mm 3 mps 737 mmHg 81%
    06:00 +17°C° 0 mm 3 mps 737 mmHg 75%
    07:00 +18°C° 0 mm 3 mps 737 mmHg 70%
    08:00 +20°C° 0 mm 3 mps 737 mmHg 63%
    09:00 +21°C° 0 mm 3 mps 738 mmHg 57%
    10:00 +24°C° 0 mm 3 mps 738 mmHg 50%
    11:00 +25°C° 0 mm 3 mps 738 mmHg 48%
    12:00 +25°C° 0 mm 3 mps 738 mmHg 46%
    13:00 +26°C° 0 mm 3 mps 738 mmHg 45%
    14:00 +26°C° 0.1 mm 4 mps 737 mmHg 46%
    15:00 +26°C° 0.1 mm 4 mps 737 mmHg 47%
    16:00 +25°C° 0.1 mm 4 mps 737 mmHg 48%
    17:00 +22°C° 0 mm 4 mps 737 mmHg 57%
    18:00 +20°C° 0 mm 3 mps 738 mmHg 66%
    19:00 +18°C° 0 mm 3 mps 738 mmHg 75%
    20:00 +17°C° 0 mm 3 mps 738 mmHg 76%
    21:00 +17°C° 0 mm 3 mps 739 mmHg 76%
    22:00 +16°C° 0 mm 3 mps 739 mmHg 77%
    23:00 +16°C° 0 mm 3 mps 739 mmHg 79%

    28 May, Sunday

    Time Temperature Precipitation Wind Pressure Humidity
    00:00 +14°C° 0 mm 3 mps 739 mmHg 81%
    01:00 +14°C° 0 mm 3 mps 739 mmHg 83%
    02:00 +14°C° 0 mm 3 mps 740 mmHg 84%
    03:00 +13°C° 0 mm 3 mps 740 mmHg 84%
    04:00 +13°C° 0 mm 3 mps 740 mmHg 85%
    05:00 +16°C° 0 mm 3 mps 740 mmHg 79%
    06:00 +18°C° 0 mm 3 mps 740 mmHg 73%
    07:00 +19°C° 0 mm 3 mps 741 mmHg 67%
    08:00 +21°C° 0 mm 3 mps 741 mmHg 61%
    09:00 +24°C° 0 mm 3 mps 741 mmHg 55%
    10:00 +25°C° 0 mm 3 mps 741 mmHg 49%
    11:00 +26°C° 0 mm 3 mps 741 mmHg 47%
    12:00 +27°C° 0 mm 3 mps 741 mmHg 45%
    13:00 +27°C° 0 mm 3 mps 741 mmHg 43%
    14:00 +27°C° 0.1 mm 3 mps 741 mmHg 44%
    15:00 +27°C° 0.1 mm 4 mps 741 mmHg 45%
    16:00 +27°C° 0.1 mm 4 mps 740 mmHg 47%
    17:00 +25°C° 0.1 mm 3 mps 741 mmHg 56%
    18:00 +21°C° 0.1 mm 3 mps 741 mmHg 65%
    19:00 +19°C° 0.1 mm 3 mps 741 mmHg 74%
    20:00 +18°C° 0 mm 3 mps 741 mmHg 75%
    21:00 +18°C° 0 mm 3 mps 742 mmHg 75%
    22:00 +17°C° 0 mm 2 mps 742 mmHg 76%
    23:00 +17°C° 0 mm 2 mps 742 mmHg 78%

    29 May, Monday

    Time Temperature Precipitation Wind Pressure Humidity
    00:00 +16°C° 0 mm 2 mps 741 mmHg 79%
    01:00 +16°C° 0 mm 2 mps 741 mmHg 81%
    02:00 +15°C° 0 mm 2 mps 741 mmHg 81%
    03:00 +15°C° 0 mm 2 mps 741 mmHg 81%
    04:00 +15°C° 0 mm 2 mps 740 mmHg 81%
    05:00 +17°C° 0 mm 2 mps 741 mmHg 75%
    06:00 +19°C° 0 mm 2 mps 741 mmHg 68%
    07:00 +21°C° 0 mm 2 mps 741 mmHg 61%
    08:00 +24°C° 0 mm 1 mps 741 mmHg 53%
    09:00 +26°C° 0 mm 1 mps 741 mmHg 44%
    10:00 +28°C° 0 mm 1 mps 740 mmHg 36%
    11:00 +28°C° 0 mm 2 mps 740 mmHg 34%
    12:00 +29°C° 0 mm 2 mps 740 mmHg 33%
    13:00 +29°C° 0 mm 3 mps 739 mmHg 32%
    14:00 +29°C° 0 mm 3 mps 739 mmHg 35%
    15:00 +28°C° 0 mm 3 mps 739 mmHg 38%
    16:00 +27°C° 0 mm 3 mps 738 mmHg 42%
    17:00 +24°C° 0 mm 2 mps 738 mmHg 55%
    18:00 +20°C° 0 mm 2 mps 738 mmHg 69%
    19:00 +18°C° 0 mm 1 mps 738 mmHg 83%
    20:00 +18°C° 0 mm 1 mps 738 mmHg 83%
    21:00 +16°C° 0 mm 1 mps 738 mmHg 83%
    22:00 +15°C° 0 mm 1 mps 738 mmHg 83%
    23:00 +15°C° 0 mm 1 mps 738 mmHg 83%

    30 May, Tuesday

    Time Temperature Precipitation Wind Pressure Humidity
    00:00 +15°C° 0 mm 1 mps 738 mmHg 83%
    01:00 +14°C° 0 mm 1 mps 737 mmHg 83%
    02:00 +14°C° 0 mm 1 mps 737 mmHg 85%
    03:00 +13°C° 0 mm 0 mps 737 mmHg 86%
    04:00 +12°C° 0 mm 0 mps 737 mmHg 87%
    05:00 +15°C° 0 mm 0 mps 737 mmHg 77%
    06:00 +18°C° 0 mm 0 mps 737 mmHg 67%
    07:00 +22°C° 0 mm 0 mps 738 mmHg 56%
    08:00 +25°C° 0 mm 1 mps 738 mmHg 52%
    09:00 +27°C° 0 mm 1 mps 738 mmHg 47%
    10:00 +28°C° 0 mm 1 mps 738 mmHg 42%
    11:00 +28°C° 0 mm 2 mps 737 mmHg 42%
    12:00 +29°C° 0 mm 2 mps 737 mmHg 42%
    13:00 +29°C° 0 mm 3 mps 737 mmHg 42%
    14:00 +28°C° 0.1 mm 3 mps 737 mmHg 47%
    15:00 +28°C° 0.1 mm 2 mps 737 mmHg 51%
    16:00 +27°C° 0.1 mm 2 mps 736 mmHg 55%
    17:00 +25°C° 0.2 mm 2 mps 736 mmHg 66%
    18:00 +22°C° 0.2 mm 1 mps 736 mmHg 77%
    19:00 +20°C° 0.2 mm 1 mps 737 mmHg 88%
    20:00 +19°C° 0.1 mm 1 mps 737 mmHg 89%
    21:00 +18°C° 0.1 mm 1 mps 737 mmHg 89%
    22:00 +16°C° 0.1 mm 1 mps 737 mmHg 90%
    23:00 +16°C° 0 mm 1 mps 737 mmHg 90%
    Show more